Barter Island, AK

5:46 AM AKDT on September 22, 2017 (GMT -0800)
Barter Island LRRS

Weather History for PABA - May, 2013

Change the Weather History Date:

Monday, May 27, 2013

  Actual Average Record
Temperature  
Mean Temperature 35 °F -  
Max Temperature 33 °F 29 °F 44 °F (1998)
Min Temperature 33 °F 23 °F 10 °F (2004)
Degree Days  
Heating Degree Days 30    
Moisture  
Dew Point 34 °F    
Average Humidity 97    
Maximum Humidity 100    
Minimum Humidity 86    
Precipitation  
Precipitation 0.00 in - - ()
Sea Level Pressure  
Sea Level Pressure 30.09 in    
Wind  
Wind Speed 16 mph (WNW)    
Max Wind Speed 26 mph    
Max Gust Speed -    
Visibility 7 miles    
Events      
Averages and records for this station are not official NWS values.
T = Trace of Precipitation, MM = Missing Value Source: NWS Daily Summary

Daily Weather History Graph

Daily Weather History Graph

Search for Another Location

Airport or City:

Trip Planner

Search our weather history database for the weather conditions in past years. The results will help you decide how hot, cold, wet, or windy it might be!

Date:

Astronomy

Dec. 31, 1969 Rise Set
Actual Time Sun does not set Sun does not set
Civil Twilight Sun does not set Sun does not set
Nautical Twilight Sun does not set Sun does not set
Astronomical Twilight Sun does not set Sun does not set
Moon 2:48 AM AKDT (5/27) 5:02 AM AKDT (5/27)
Length of Visible Light 24h 00m
Length of Day
24h 00m
Waning Gibbous, 90% of the Moon is Illuminated
May 27
Waning Gibbous
May 31
Last Quarter
Jun 8
New
Jun 16
First Quarter
Jun 23
Full

Hourly Weather History & Observations

Time (AKDT) Temp. Windchill Dew Point Humidity Pressure Visibility Wind Dir Wind Speed Gust Speed Precip Events Conditions
12:01 AM 35.1 °F 23.3 °F 34.0 °F 96% 29.96 in 10.0 mi WNW 23.0 mph - N/A   Unknown
1:01 AM 35.1 °F 23.0 °F 34.0 °F 96% 29.98 in 10.0 mi West 24.2 mph - N/A   Unknown
2:01 AM 35.1 °F 23.0 °F 35.1 °F 100% 30.00 in 10.0 mi West 24.2 mph - N/A   Unknown
3:01 AM 35.1 °F 22.5 °F 34.0 °F 96% 30.04 in 10.0 mi West 26.5 mph - N/A   Unknown
4:01 AM 34.0 °F 22.1 °F 34.0 °F 100% 30.04 in 10.0 mi West 21.9 mph - N/A   Unknown
5:01 AM 34.0 °F 22.7 °F 34.0 °F 100% 30.05 in 10.0 mi West 19.6 mph - N/A   Unknown
6:01 AM 34.0 °F 23.8 °F 34.0 °F 100% 30.07 in 10.0 mi West 16.1 mph - N/A   Unknown
6:31 AM 33.8 °F 23.9 °F 33.8 °F 100% 30.08 in 1.8 mi WNW 15.0 mph - N/A   Mist
7:01 AM 33.1 °F 23.9 °F 33.1 °F 100% 30.08 in 6.0 mi WNW 12.7 mph - N/A   Mist
7:10 AM 33.8 °F 24.3 °F 33.8 °F 100% 30.08 in 1.8 mi WNW 13.8 mph - N/A   Mist
7:35 AM 33.8 °F 25.3 °F 33.8 °F 100% 30.08 in 3.0 mi West 11.5 mph - N/A   Mist
8:01 AM 34.0 °F 26.0 °F 34.0 °F 100% 30.09 in 7.0 mi West 10.4 mph - N/A   Unknown
8:53 AM 33.8 °F 24.8 °F 33.8 °F 100% 30.10 in 2.0 mi West 12.7 mph - N/A   Mist
9:01 AM 33.8 °F 25.8 °F 33.8 °F 100% 30.10 in 1.5 mi West 10.4 mph - N/A   Mist
9:26 AM 35.6 °F 27.5 °F 35.6 °F 100% 30.10 in 2.5 mi WNW 11.5 mph - N/A   Mist
9:33 AM 35.6 °F 27.5 °F 35.6 °F 100% 30.10 in 6.0 mi WNW 11.5 mph - N/A   Mist
10:01 AM 35.1 °F 26.4 °F 35.1 °F 100% 30.10 in 10.0 mi West 12.7 mph - N/A   Unknown
11:01 AM 35.1 °F 26.9 °F 35.1 °F 100% 30.11 in 5.0 mi WNW 11.5 mph - N/A   Mist
12:01 PM 34.0 °F 24.2 °F 34.0 °F 100% 30.11 in 8.0 mi WNW 15.0 mph - N/A   Unknown
1:01 PM 34.0 °F 26.0 °F 34.0 °F 100% 30.12 in 6.0 mi WNW 10.4 mph - N/A   Mist
2:01 PM 37.0 °F 31.6 °F 35.1 °F 93% 30.12 in 6.0 mi WNW 6.9 mph - N/A   Mist
3:01 PM 36.0 °F 29.6 °F 34.0 °F 93% 30.13 in 10.0 mi West 8.1 mph - N/A   Unknown
4:01 PM 37.0 °F 33.3 °F 34.0 °F 89% 30.12 in 10.0 mi WNW 4.6 mph - N/A   Unknown
5:01 PM 37.0 °F 33.3 °F 33.1 °F 86% 30.12 in 10.0 mi West 4.6 mph - N/A   Unknown
6:01 PM 36.0 °F 31.1 °F 33.1 °F 89% 30.12 in 10.0 mi WNW 5.8 mph - N/A   Unknown
7:01 PM 35.1 °F 31.0 °F 33.1 °F 92% 30.12 in 10.0 mi WNW 4.6 mph - N/A   Unknown
8:01 PM 35.1 °F 32.2 °F 33.1 °F 92% 30.12 in 10.0 mi NW 3.5 mph - N/A   Unknown
9:01 PM 34.0 °F 31.0 °F 33.1 °F 96% 30.12 in 8.0 mi NW 3.5 mph - N/A   Unknown
10:01 PM 34.0 °F - 33.1 °F 96% 30.12 in 9.0 mi Calm Calm - N/A   Unknown
11:01 PM 33.1 °F - 33.1 °F 100% 30.12 in 8.0 mi Calm Calm - N/A   Unknown